Date String (YYYY-MM-DD hh:mm:ss) UTC,Instrument flags,absolute air pressure of the measurement (hPa),sample flow rate (lpm),inlet stack bypass flow (lpm),air temperature of the measurement (°C),ambient temperature measured by the external sensor (°C),aerosol sample conditioner tube jacket temperature (°C),OPC LED temperature (°C),internal box temperature (°C),relative humidity of the measurement (%),span deviation,mass concentration of particles derived from Lorenz-Mie calculation of OPC scattering (μg/m³),mass concentration of particles derived from Lorenz-Mie calculation of OPC scattering (μg/m³),mass concentration of particles derived from Lorenz-Mie calculation of OPC scattering (μg/m³)
DateTimeUTC,F1_M11,P_M11,Q1_M11,Q2_M11,T1_M11,T2_M11,T3_M11,T4_M11,T5_M11,U1_M11,ZSPAN_M11,X0_M11,X2_M11,X1_M11
2024-05-02 20:00:00,SystemResetWarning,0824.4,5.00,000.00,025.1,024.4,000.0,033.5,026.8,011.3,0000.0,0012.59,0004.05,0002.62
2024-05-02 20:01:00,SystemResetWarning,0824.3,5.00,000.00,025.1,024.4,000.0,033.5,026.9,010.7,0000.0,0012.58,0004.04,0002.58
2024-05-02 20:02:00,SystemResetWarning,0824.3,5.00,000.00,025.1,024.4,000.0,033.5,026.8,010.8,0000.0,0012.74,0004.07,0002.55
2024-05-02 20:03:00,SystemResetWarning,0824.3,5.01,000.00,025.1,024.4,000.0,033.5,026.8,010.8,0000.0,0012.07,0004.05,0002.53
2024-05-02 20:04:00,SystemResetWarning,0824.3,5.00,000.00,025.1,024.4,000.0,033.5,026.8,011.0,0000.0,0011.32,0004.00,0002.52
2024-05-02 20:05:00,SystemResetWarning,0824.3,5.00,000.00,025.1,024.4,000.0,033.5,026.8,011.1,0000.0,0010.71,0003.96,0002.54
2024-05-02 20:06:00,SystemResetWarning,0824.3,5.00,000.00,025.1,024.4,000.0,033.5,026.8,011.1,0000.0,0011.10,0003.94,0002.57
2024-05-02 20:07:00,SystemResetWarning,0824.3,5.00,000.00,025.1,024.4,000.0,033.5,026.8,011.2,0000.0,0011.13,0003.94,0002.59
2024-05-02 20:08:00,SystemResetWarning,0824.2,4.98,000.00,025.1,024.4,000.0,033.5,026.8,011.7,0000.0,0011.45,0003.91,0002.58
2024-05-02 20:09:00,SystemResetWarning,0824.3,5.00,000.00,025.1,024.4,000.0,033.5,026.8,011.6,0000.0,0011.77,0003.87,0002.58
2024-05-02 20:10:00,SystemResetWarning,0824.3,5.01,000.00,025.1,024.4,000.0,033.5,026.8,011.6,0000.0,0013.24,0003.94,0002.60
2024-05-02 20:11:00,SystemResetWarning,0824.3,5.01,000.00,025.1,024.4,000.0,033.5,026.8,011.7,0000.0,0015.45,0004.01,0002.63
2024-05-02 20:12:00,SystemResetWarning,0824.2,4.99,000.00,025.1,024.4,000.0,033.5,026.8,011.4,0000.0,0015.57,0004.08,0002.65
2024-05-02 20:13:00,SystemResetWarning,0824.2,5.00,000.00,025.1,024.4,000.0,033.5,026.8,011.1,0000.0,0015.24,0004.07,0002.67
2024-05-02 20:14:00,SystemResetWarning,0824.3,5.00,000.00,025.1,024.4,000.0,033.5,026.8,011.5,0000.0,0014.36,0004.05,0002.71
2024-05-02 20:15:00,SystemResetWarning,0824.3,5.00,000.00,025.1,024.4,000.0,033.5,026.8,011.6,0000.0,0014.28,0004.08,0002.73
2024-05-02 20:16:00,SystemResetWarning,0824.3,5.00,000.00,025.1,024.4,000.0,033.5,026.8,011.0,0000.0,0014.20,0004.10,0002.75
2024-05-02 20:17:00,SystemResetWarning,0824.3,5.00,000.00,025.1,024.4,000.0,033.4,026.7,011.0,0000.0,0013.52,0004.12,0002.75
2024-05-02 20:18:00,SystemResetWarning,0824.3,5.00,000.00,025.1,024.4,000.0,033.4,026.7,011.6,0000.0,0013.44,0004.13,0002.74
2024-05-02 20:19:00,SystemResetWarning,0824.3,5.00,000.00,025.1,024.4,000.0,033.4,026.7,011.4,0000.0,0012.48,0004.11,0002.75
2024-05-02 20:20:00,SystemResetWarning,0824.3,5.00,000.00,025.1,024.4,000.0,033.4,026.7,011.2,0000.0,0012.01,0004.14,0002.77
2024-05-02 20:21:00,SystemResetWarning,0824.3,5.00,000.00,025.1,024.4,000.0,033.4,026.8,011.6,0000.0,0010.40,0004.06,0002.77
2024-05-02 20:22:00,SystemResetWarning,0824.3,5.00,000.00,025.1,024.4,000.0,033.4,026.7,011.2,0000.0,0008.45,0004.01,0002.77
2024-05-02 20:23:00,SystemResetWarning,0824.3,5.00,000.00,025.1,024.4,000.0,033.4,026.8,011.1,0000.0,0008.33,0003.93,0002.77
2024-05-02 20:24:00,SystemResetWarning,0824.3,5.00,000.00,025.1,024.4,000.0,033.4,026.8,010.9,0000.0,0008.51,0003.94,0002.78
2024-05-02 20:25:00,SystemResetWarning,0824.3,5.00,000.00,025.1,024.4,000.0,033.4,026.8,010.6,0000.0,0008.73,0003.92,0002.78
2024-05-02 20:26:00,SystemResetWarning,0824.1,5.00,000.00,025.0,024.4,000.0,033.4,026.7,010.7,0000.0,0008.81,0003.92,0002.79
2024-05-02 20:27:00,SystemResetWarning,0824.2,5.00,000.00,025.0,024.4,000.0,033.4,026.7,011.6,0000.0,0009.22,0003.90,0002.80
2024-05-02 20:28:00,SystemResetWarning,0824.1,5.00,000.00,025.1,024.4,000.0,033.4,026.8,011.6,0000.0,0009.27,0003.90,0002.79
2024-05-02 20:29:00,SystemResetWarning,0824.2,5.01,000.00,025.1,024.4,000.0,033.4,026.8,011.2,0000.0,0009.39,0003.94,0002.81
2024-05-02 20:30:00,SystemResetWarning,0824.2,5.01,000.00,025.1,024.4,000.0,033.4,026.7,011.9,0000.0,0009.84,0004.01,0002.82
2024-05-02 20:31:00,SystemResetWarning,0824.1,4.99,000.00,025.1,024.4,000.0,033.4,026.7,012.1,0000.0,0010.03,0004.02,0002.82
2024-05-02 20:32:00,SystemResetWarning,0824.2,4.99,000.00,025.1,024.4,000.0,033.4,026.7,011.4,0000.0,0010.67,0004.12,0002.83
2024-05-02 20:33:00,SystemResetWarning,0824.2,5.00,000.00,025.1,024.3,000.0,033.4,026.7,011.2,0000.0,0010.84,0004.18,0002.83
2024-05-02 20:34:00,SystemResetWarning,0824.2,5.00,000.00,025.0,024.3,000.0,033.4,026.7,012.2,0000.0,0010.64,0004.21,0002.84
2024-05-02 20:35:00,SystemResetWarning,0824.2,5.01,000.00,025.0,024.3,000.0,033.4,026.7,011.1,0000.0,0011.24,0004.19,0002.84
2024-05-02 20:36:00,SystemResetWarning,0824.1,5.00,000.00,025.0,024.4,000.0,033.4,026.7,011.1,0000.0,0011.00,0004.18,0002.85
2024-05-02 20:37:00,SystemResetWarning,0824.2,5.01,000.00,025.1,024.4,000.0,033.4,026.7,010.9,0000.0,0011.07,0004.20,0002.88
2024-05-02 20:38:00,SystemResetWarning,0824.2,4.98,000.00,025.1,024.4,000.0,033.4,026.8,011.4,0000.0,0010.89,0004.24,0002.88
2024-05-02 20:39:00,SystemResetWarning,0824.2,5.00,000.00,025.1,024.4,000.0,033.4,026.7,011.0,0000.0,0011.18,0004.25,0002.91
2024-05-02 20:40:00,SystemResetWarning,0824.2,5.00,000.00,025.1,024.4,000.0,033.4,026.7,011.4,0000.0,0011.02,0004.21,0002.92
2024-05-02 20:41:00,SystemResetWarning,0824.1,5.00,000.00,025.1,024.4,000.0,033.4,026.8,012.5,0000.0,0011.32,0004.17,0002.91
2024-05-02 20:42:00,SystemResetWarning,0824.2,5.01,000.00,025.1,024.4,000.0,033.4,026.8,011.4,0000.0,0011.13,0004.16,0002.90
2024-05-02 20:43:00,SystemResetWarning,0824.1,5.01,000.00,025.1,024.4,000.0,033.4,026.8,011.6,0000.0,0011.01,0004.08,0002.90
2024-05-02 20:44:00,SystemResetWarning,0824.1,5.00,000.00,025.1,024.4,000.0,033.4,026.8,011.3,0000.0,0011.24,0004.10,0002.92
2024-05-02 20:45:00,SystemResetWarning,0824.1,4.99,000.00,025.1,024.4,000.0,033.4,026.8,011.1,0000.0,0011.18,0004.05,0002.92
2024-05-02 20:46:00,SystemResetWarning,0824.1,4.99,000.00,025.1,024.4,000.0,033.4,026.8,011.3,0000.0,0010.67,0004.06,0002.94
2024-05-02 20:47:00,SystemResetWarning,0824.0,5.00,000.00,025.1,024.4,000.0,033.4,026.8,011.6,0000.0,0010.66,0004.07,0002.92
2024-05-02 20:48:00,SystemResetWarning,0824.0,5.00,000.00,025.1,024.4,000.0,033.4,026.8,011.8,0000.0,0011.90,0004.09,0002.89
2024-05-02 20:49:00,SystemResetWarning,0824.0,4.99,000.00,025.1,024.4,000.0,033.4,026.8,012.1,0000.0,0011.96,0004.07,0002.88
2024-05-02 20:50:00,SystemResetWarning,0824.0,4.99,000.00,025.1,024.4,000.0,033.4,026.8,011.2,0000.0,0011.52,0004.03,0002.86
2024-05-02 20:51:00,SystemResetWarning,0824.1,5.00,000.00,025.1,024.4,000.0,033.4,026.8,011.0,0000.0,0011.62,0004.04,0002.83
2024-05-02 20:52:00,SystemResetWarning,0824.0,5.01,000.00,025.1,024.4,000.0,033.4,026.8,011.2,0000.0,0011.43,0004.05,0002.83
2024-05-02 20:53:00,SystemResetWarning,0824.1,5.01,000.00,025.1,024.5,000.0,033.4,026.8,010.9,0000.0,0012.34,0004.08,0002.88
2024-05-02 20:54:00,SystemResetWarning,0824.0,4.99,000.00,025.1,024.5,000.0,033.4,026.8,011.4,0000.0,0012.19,0004.11,0002.91
2024-05-02 20:55:00,SystemResetWarning,0824.0,5.00,000.00,025.1,024.5,000.0,033.4,026.8,011.1,0000.0,0012.70,0004.07,0002.92
2024-05-02 20:56:00,SystemResetWarning,0824.0,5.01,000.00,025.1,024.5,000.0,033.4,026.8,011.6,0000.0,0013.27,0004.08,0002.94
2024-05-02 20:57:00,SystemResetWarning,0824.0,5.01,000.00,025.1,024.5,000.0,033.4,026.8,011.3,0000.0,0013.78,0004.08,0002.93
2024-05-02 20:58:00,SystemResetWarning,0824.1,4.98,000.00,025.1,024.5,000.0,033.5,026.9,011.3,0000.0,0013.75,0004.09,0002.95
2024-05-02 20:59:00,SystemResetWarning,0824.2,4.99,000.00,025.1,024.5,000.0,033.5,026.9,011.0,0000.0,0015.05,0004.17,0002.97
